Location: Wildcat Hills Observatory
(41.6350°N, 103.6812°W)
Time: 05:02:19
(UTC-06:00)

NOSS 2-2 (C) - Pass Details

Date: 23 June 2018
Orbit: 517 x 1692 km, 63.3° (Epoch: 04 August)

Event Time Altitude Azimuth Distance (km) Brightness Sun altitude
Exits shadow 22:08:07 22° 116° (ESE) 1,183 4.5 -14.1°
Maximum altitude 22:08:15 22° 113° (ESE) 1,184 4.5 -14.1°
Drops below altitude 10° 22:11:26 10° 61° (ENE) 1,872 5.9 -14.5°
Sets 22:14:10 0° 47° (NE) 2,895 7.1 -14.8°
